Skip Page Navigation
NASA JPL Caltech
NASA Logo - Jet Propulsion Laboratory + View the NASA Portal
+ Near-Earth Object (NEO) Program
Search JPL
JPL Home Earth Solar System Stars & Galaxies Technology
JPL Solar System Dynamics
BODIES ORBITS EPHEMERIDES TOOLS PHYSICAL DATA DISCOVERY FAQ SITE MAP
JPL Small-Body Database Browser
Search: [ help ]  
58167 (1990 QM3)
Classification: Main-belt Asteroid          SPK-ID: 2058167
Ephemeris | Orbit Diagram | Orbital Elements | Physical Parameters | Discovery Circumstances | Close-Approach Data ]

[ show orbit diagram ]
Orbital Elements at Epoch 2457600.5 (2016-Jul-31.0) TDB
Reference: JPL 14 (heliocentric ecliptic J2000)
 Element Value Uncertainty (1-sigma)   Units 
e .1469465338830788 8.0499e-08  
a 2.325825612153894 1.6359e-08 au
q 1.984053600031389 1.8581e-07 au
i 7.191940701206616 7.0979e-06 deg
node 352.5733275860711 4.531e-05 deg
peri 9.50894258770033 5.032e-05 deg
M 96.91449935755682 1.9491e-05 deg
tp 2457251.720937681273
(2015-Aug-17.22093768)
7.0886e-05 JED
period 1295.579745725131
3.55
1.3669e-05
3.742e-08
d
yr
n .2778678820719826 2.9316e-09 deg/d
Q 2.667597624276399 1.8763e-08 au
  Orbit Determination Parameters
   # obs. used (total)      718  
   data-arc span      9340 days (25.57 yr)  
   first obs. used      1990-08-22  
   last obs. used      2016-03-18  
   planetary ephem.      DE431  
   SB-pert. ephem.      SB431-BIG16  
   condition code      0  
   fit RMS      .5682  
   data source      ORB  
   producer      Otto Matic  
   solution date      2016-Mar-24 18:05:59  

Additional Information
 Earth MOID = .980269 au 
 Jupiter MOID = 2.77186 au 
 T_jup = 3.549 
[ show covariance matrix ]

Ephemeris | Orbit Diagram | Orbital Elements | Physical Parameters | Discovery Circumstances | Close-Approach Data ]

Physical Parameter Table
Parameter Symbol Value Units Sigma Reference Notes
absolute magnitude H 15.4 mag n/a MPO351246  

58167 (1990 QM3)          Discovered 1990-Aug-28 by Holt, H. E. at Palomar
Reference: 20030614/Numbers.arcLast Updated: 2004-04-19

[ show close-approach data ]
Alternate Designations
 1990 QM3 = 2001 TQ8 
Ephemeris | Orbit Diagram | Orbital Elements | Physical Parameters | Discovery Circumstances | Close-Approach Data ]
ABOUT SSD CREDITS/AWARDS PRIVACY/COPYRIGHT GLOSSARY LINKS
FirstGov 2016-May-01 15:32 UT
(server date/time)  
NASA Home Page
Site Manager:   Ryan S. Park
Webmaster  Alan B. Chamberlin